Weather History for Platteville, WI

Change the Weather History Date:

Wednesday, October 30, 2013

  Actual Average (KDBQ) Record (KDBQ)
Temperature  
Mean Temperature 50 °F 45 °F  
Max Temperature 57 °F 54 °F 82 °F (1950)
Min Temperature 45 °F 36 °F 10 °F (1925)
Degree Days  
Heating Degree Days 14 20  
Month to date heating degree days 450  
Since 1 July heating degree days 628  
Cooling Degree Days 0 0  
Month to date cooling degree days 4  
Year to date cooling degree days 641  
Moisture  
Dew Point 48 °F    
Average Humidity 90    
Maximum Humidity 96    
Minimum Humidity 65    
Precipitation  
Precipitation 0.03 in 0.09 in 1.39 in (1967)
Month to date precipitation 2.58  
Year to date precipitation 32.02  
Snow  
Snow 0.00 in 0.00 in - ()
Month to date snowfall 0.0  
Since 1 July snowfall 0.0  
Since 1 September snowfall 0.0  
Snow Depth -    
Sea Level Pressure  
Sea Level Pressure 29.95 in    
Wind  
Wind Speed 8 mph (ESE)    
Max Wind Speed 21 mph    
Max Gust Speed 29 mph    
Visibility 5 miles    
Events      
T = Trace of Precipitation, MM = Missing Value Source: NWS Daily Summary

Daily Weather History Graph

Daily Weather History Graph

Search for Another Location

Airport:

Trip Planner

Search our weather history database for the weather conditions in past years. The results will help you decide how hot, cold, wet, or windy it might be!

Date:

Astronomy

Oct. 30, 2013 Rise Set
Actual Time 7:33 AM CDT 5:56 PM CDT
Civil Twilight 7:04 AM CDT 6:25 PM CDT
Nautical Twilight 6:30 AM CDT 6:59 PM CDT
Astronomical Twilight 5:58 AM CDT 7:31 PM CDT
Moon 3:17 AM CDT (10/30) 3:46 PM CDT (10/30)
Length of Visible Light 11h 21m
Length of Day
10h 23m
Waning Crescent, 17% of the Moon is Illuminated
Oct 30
Waning Crescent
Nov 3
New
Nov 9
First Quarter
Nov 17
Full
Nov 25
Last Quarter

Hourly Weather History & Observations

Time (CDT) Temp. Windchill Dew Point Humidity Pressure Visibility Wind Dir Wind Speed Gust Speed Precip Events Conditions
12:15 AM 50.5 °F - 39.2 °F 65% 30.10 in 10.0 mi SE 5.8 mph - N/A   Overcast
12:35 AM 50.0 °F - 39.4 °F 67% 30.09 in 10.0 mi SE 5.8 mph - N/A   Overcast
12:55 AM 49.1 °F - 39.4 °F 69% 30.09 in 10.0 mi SE 6.9 mph - N/A   Overcast
1:15 AM 47.7 °F - 39.2 °F 72% 30.09 in 10.0 mi SE 5.8 mph - N/A   Scattered Clouds
1:35 AM 47.3 °F - 39.2 °F 73% 30.09 in 10.0 mi ESE 6.9 mph - N/A   Clear
1:55 AM 46.4 °F 42.9 °F 39.2 °F 76% 30.08 in 10.0 mi East 6.9 mph - N/A   Scattered Clouds
2:15 AM 45.9 °F 42.3 °F 39.2 °F 78% 30.08 in 10.0 mi East 6.9 mph - N/A   Mostly Cloudy
2:35 AM 46.0 °F 43.1 °F 39.4 °F 78% 30.08 in 10.0 mi East 5.8 mph - N/A   Overcast
2:55 AM 46.0 °F 41.9 °F 39.6 °F 78% 30.08 in 10.0 mi East 8.1 mph - N/A   Overcast
3:15 AM 46.6 °F - 40.1 °F 78% 30.08 in 10.0 mi East 4.6 mph - N/A   Overcast
3:35 AM 46.9 °F - 40.5 °F 78% 30.08 in 10.0 mi East 4.6 mph - N/A   Mostly Cloudy
3:55 AM 46.9 °F - 41.0 °F 80% 30.07 in 10.0 mi East 6.9 mph - N/A   Mostly Cloudy
4:15 AM 47.3 °F - 41.4 °F 80% 30.07 in 10.0 mi East 6.9 mph - N/A   Mostly Cloudy
4:35 AM 47.3 °F - 42.3 °F 83% 30.06 in 10.0 mi East 9.2 mph - N/A   Mostly Cloudy
4:55 AM 47.5 °F - 43.2 °F 85% 30.06 in 7.0 mi ESE 6.9 mph - N/A   Mostly Cloudy
5:15 AM 47.7 °F - 43.7 °F 86% 30.06 in 7.0 mi East 5.8 mph - N/A   Mostly Cloudy
5:35 AM 47.8 °F - 44.2 °F 87% 30.06 in 5.0 mi East 5.8 mph - N/A   Scattered Clouds
5:55 AM 48.2 °F - 45.0 °F 89% 30.06 in 5.0 mi East 6.9 mph - N/A   Scattered Clouds
6:15 AM 48.2 °F - 45.3 °F 90% 30.06 in 4.0 mi East 5.8 mph - N/A   Mostly Cloudy
6:35 AM 48.4 °F - 45.5 °F 90% 30.05 in 4.0 mi East 6.9 mph - N/A   Mostly Cloudy
6:55 AM 48.6 °F - 46.2 °F 92% 30.03 in 3.0 mi East 9.2 mph - N/A   Overcast
7:15 AM 48.2 °F - 46.2 °F 93% 30.03 in 1.2 mi East 9.2 mph - N/A   Overcast
7:35 AM 47.7 °F - 46.0 °F 94% 30.04 in 0.5 mi ESE 6.9 mph - N/A   Overcast
7:55 AM 47.5 °F - 45.9 °F 94% 30.04 in 0.2 mi East 10.4 mph - N/A   Overcast
8:15 AM 47.3 °F - 45.9 °F 95% 30.03 in 0.2 mi East 8.1 mph - N/A   Overcast
8:35 AM 47.5 °F - 46.0 °F 95% 30.04 in 0.2 mi East 8.1 mph - N/A   Overcast
8:55 AM 48.0 °F - 46.6 °F 95% 30.04 in 0.2 mi East 9.2 mph - N/A   Overcast
9:15 AM 48.4 °F - 46.9 °F 95% 30.05 in 0.2 mi East 9.2 mph - N/A   Overcast
9:35 AM 48.6 °F - 47.3 °F 95% 30.04 in 0.2 mi East 11.5 mph - N/A   Overcast
9:55 AM 49.1 °F - 47.7 °F 95% 30.04 in 0.2 mi ESE 11.5 mph - N/A   Overcast
10:15 AM 49.6 °F - 48.2 °F 95% 30.02 in 0.2 mi ESE 9.2 mph - N/A   Overcast
10:35 AM 50.0 °F - 48.7 °F 95% 30.01 in 0.2 mi ESE 8.1 mph - N/A   Overcast
10:55 AM 50.5 °F - 49.3 °F 95% 29.99 in 0.2 mi ESE 11.5 mph - N/A   Overcast
11:15 AM 51.1 °F - 49.8 °F 95% 29.99 in 0.2 mi ESE 10.4 mph - N/A   Overcast
11:35 AM 51.4 °F - 50.0 °F 95% 30.00 in 0.2 mi ESE 10.4 mph - N/A   Overcast
11:55 AM 51.8 °F - 50.2 °F 94% 30.01 in 0.2 mi ESE 8.1 mph - N/A   Overcast
12:15 PM 51.8 °F - 50.4 °F 95% 29.99 in 0.2 mi East 10.4 mph - N/A   Overcast
12:35 PM 52.0 °F - 50.9 °F 96% 29.99 in 0.2 mi ESE 9.2 mph - N/A   Overcast
12:55 PM 52.0 °F - 50.7 °F 95% 29.99 in 0.2 mi ESE 6.9 mph - N/A   Overcast
1:15 PM 52.0 °F - 50.7 °F 95% 29.99 in 0.2 mi ESE 6.9 mph - N/A   Overcast
1:35 PM 52.0 °F - 50.9 °F 96% 29.98 in 0.2 mi ESE 6.9 mph - N/A   Overcast
1:55 PM 52.2 °F - 50.9 °F 95% 29.97 in 0.2 mi SE 8.1 mph - N/A   Overcast
2:15 PM 52.2 °F - 50.9 °F 95% 29.98 in 0.2 mi WSW 3.5 mph - N/A   Overcast
2:35 PM 52.7 °F - 51.4 °F 95% 29.95 in 0.2 mi Calm Calm - N/A   Overcast
2:55 PM 52.7 °F - 51.4 °F 95% 29.92 in 0.5 mi SE 9.2 mph - 0.02 in   Overcast
3:15 PM 52.9 °F - 51.8 °F 96% 29.91 in 3.0 mi SSE 20.7 mph - N/A   Mostly Cloudy
3:35 PM 54.1 °F - 52.9 °F 95% 29.88 in 7.0 mi South 18.4 mph 28.8 mph N/A   Scattered Clouds
3:55 PM 53.6 °F - 52.2 °F 95% 29.86 in 7.0 mi South 13.8 mph - N/A   Clear
4:15 PM 53.8 °F - 52.5 °F 95% 29.83 in 10.0 mi SSE 12.7 mph - N/A   Clear
4:35 PM 53.6 °F - 52.2 °F 95% 29.83 in 5.0 mi SSE 18.4 mph 23.0 mph 0.01 in   Scattered Clouds
4:55 PM 53.6 °F - 52.2 °F 95% 29.82 in 4.0 mi South 19.6 mph - 0.01 in   Scattered Clouds
5:15 PM 53.6 °F - 52.3 °F 95% 29.81 in 4.0 mi SSE 18.4 mph 25.3 mph N/A   Mostly Cloudy
5:35 PM 54.0 °F - 52.7 °F 95% 29.81 in 3.0 mi SSE 19.6 mph - N/A   Overcast
5:55 PM 54.7 °F - 53.6 °F 96% 29.80 in 5.0 mi SSE 17.3 mph - N/A   Mostly Cloudy
6:15 PM 54.9 °F - 53.6 °F 96% 29.81 in 7.0 mi SE 15.0 mph - N/A   Clear
7:55 PM 54.7 °F - 52.5 °F 92% 29.79 in 10.0 mi South 4.6 mph - N/A   Scattered Clouds
8:15 PM 54.0 °F - 52.2 °F 94% 29.78 in 10.0 mi SSE 3.5 mph - N/A   Mostly Cloudy
8:35 PM 53.8 °F - 51.8 °F 93% 29.78 in 10.0 mi Calm Calm - N/A   Mostly Cloudy
8:55 PM 54.0 °F - 52.3 °F 94% 29.77 in 10.0 mi Calm Calm - N/A   Mostly Cloudy
9:15 PM 54.7 °F - 52.9 °F 94% 29.78 in 10.0 mi Calm Calm - N/A   Mostly Cloudy
9:35 PM 54.5 °F - 52.7 °F 94% 29.77 in 10.0 mi ESE 5.8 mph - N/A   Mostly Cloudy
9:55 PM 54.7 °F - 52.9 °F 94% 29.77 in 10.0 mi SE 4.6 mph - N/A   Overcast
10:15 PM 54.3 °F - 52.7 °F 94% 29.76 in 10.0 mi SE 8.1 mph - N/A   Mostly Cloudy
10:35 PM 54.9 °F - 53.4 °F 95% 29.76 in 10.0 mi SSE 8.1 mph - N/A   Mostly Cloudy
10:55 PM 55.4 °F - 53.6 °F 94% 29.74 in 10.0 mi SSE 10.4 mph - N/A   Mostly Cloudy
11:15 PM 56.3 °F - 54.7 °F 94% 29.74 in 10.0 mi SSE 12.7 mph 17.3 mph N/A   Mostly Cloudy
11:35 PM 56.5 °F - 54.9 °F 94% 29.73 in 10.0 mi SSE 9.2 mph - N/A   Mostly Cloudy
11:55 PM 56.5 °F - 54.9 °F 94% 29.71 in 7.0 mi SSE 10.4 mph - N/A   Overcast